Location: Baili�vre
(50.0696°N, 4.2409°E)
Time: 04:45:01
(UTC+00:00)

Cosmos 44 - Pass Details

Date: 08 August 2020
Orbit: 583 x 779 km, 65.1° (Epoch: 19 September)

Event Time Altitude Azimuth Distance (km) Brightness Sun altitude
Rises 22:54:13 0° 317° (NW) 3,035 7.6 -23.1°
Reaches altitude 10° 22:56:33 10° 311° (NW) 2,148 6.6 -23.2°
Maximum altitude 23:01:15 48° 238° (WSW) 933 3.7 -23.3°
Enters shadow 23:01:31 48° 228° (SW) 940 3.7 -23.3°
